Regional Weather Roundup
Issued by NWS

Home | Current Version | Previous Version | Graphics & Text | Print | Product List | Glossary On
Versions: 1 2 3 4 5 6 7 8 9 10 11 12 13 14 15 16 17 18 19 20 21 22 23 24 25 26 27 28 29 30 31 32 33 34 35 36 37 38 39 40 41 42 43 44 45 46 47 48 49 50
000
ASUS43 KMPX 302201
RWRMN
WEATHER ROUNDUP FOR MINNESOTA
NATIONAL WEATHER SERVICE TWIN CITIES/CHANHASSEN MN
500 PM CDT FRI SEP 30 2016


NOTE: "FAIR" INDICATES FEW OR NO CLOUDS BELOW 12,000 FEET WITH NO
SIGNIFICANT WEATHER AND/OR OBSTRUCTIONS TO VISIBILITY. N/A MEANS
CURRENT SKY AND/OR WEATHER CONDITIONS ARE NOT AVAILABLE.

MNZ060>063-068>070-302300-
   Twin Cities Metro

CITY           SKY/WX    TMP DP  RH WIND       PRES   REMARKS
TWIN CITIES    MOSUNNY   71  49  45 NE12      30.22F
ST PAUL        SUNNY     71  48  43 N10       30.23F
CRYSTAL        SUNNY     71  47  42 NE9       30.21F
BLAINE         SUNNY     72  52  49 NE12G17   30.22F
LAKEVILLE      SUNNY     70  52  52 N8        30.22F
EDEN PRAIRIE   SUNNY     71  51  49 NE9       30.21F
LAKEVILLE      SUNNY     70  52  52 N8        30.22F
SOUTH ST PAUL  SUNNY     72  47  41 NE5       30.22S
LAKE ELMO      FAIR      70  50  49 N8        30.23F
$$
MNZ001>005-007-008-013>017-022>024-027-028-302300-
   Northwest Minnesota

CITY           SKY/WX    TMP DP  RH WIND       PRES   REMARKS
BEMIDJI        SUNNY     60  51  73 SE6       30.28F
HALLOCK        MOSUNNY   70  55  60 SE13      30.21S
ROSEAU         MOSUNNY   61  54  77 SE8       30.28S
WARROAD        MOSUNNY   59  54  82 SE7       30.29F
THIEF RVR FALL MOSUNNY   64  54  69 E13       30.25S
CROOKSTON      PTSUNNY   68  48  49 S14       30.22S
FOSSTON        MOSUNNY   66  48  52 SE9       30.25F
DETROIT LAKES  MOSUNNY   63  54  72 SE8       30.26F
MOORHEAD       CLOUDY    70  48  46 SE16      30.21F
PARK RAPIDS    SUNNY     67  48  50 E7        30.26F
MAHNOMEN       FAIR      64  48  56 S10       30.25S
$$
MNZ006-009>011-018-025>026-302300-
   North Central Minnesota

CITY           SKY/WX    TMP DP  RH WIND       PRES   REMARKS
BAUDETTE       PTSUNNY   56  50  80 SE8       30.31F
FLAG ISLAND    CLOUDY    54  50  87 SE13      30.29F
INTL FALLS     CLOUDY    58  51  78 VRB7      30.33F
WASKISH        MOSUNNY   63  54  72 SE8       30.30S
BIG FORK       CLOUDY    66  50  55 SE3       30.31F
LONGVILLE      SUNNY     68  48  49 E3        30.28F
GRAND RAPIDS   SUNNY     67  49  52 SE7       30.31F
ORR            SUNNY     66  48  52 CALM      30.30S
COOK           SUNNY     66  46  48 SE5       30.32F
WALKER         FAIR      60  52  73 CALM      30.29S
$$
MNZ012-019>021-037-302300-
   Northeast Minnesota

CITY           SKY/WX    TMP DP  RH WIND       PRES   REMARKS
DULUTH         CLOUDY    55  51  86 E12       30.33F
ELY            SUNNY     68  43  40 SE6       30.32F
HIBBING        SUNNY     65  45  48 SE10      30.31F
EVELETH        SUNNY     67  43  42 SE6       30.33S
DULUTH HARBOR  CLOUDY    55  54  94 NE15      30.35F
TWO HARBORS    CLOUDY    57  54  88 E8        30.33F
SILVER BAY     PTSUNNY   57  54  88 E6        30.34S
GRAND MARAIS     N/A     59  56  89 E5        30.36F
G MARAIS ARPRT SUNNY     61  48  63 E8        30.38S
$$
MNZ029>031-032-039>041-046>048-054>057-064-302300-
   West Central Minnesota

CITY           SKY/WX    TMP DP  RH WIND       PRES   REMARKS
FERGUS FALLS   MOSUNNY   66  50  55 SE10      30.25S
MORRIS         CLOUDY    72  48  43 E10G17    30.22S
ALEXANDRIA     SUNNY     67  47  48 SE12      30.26F
ELBOW LAKE     FAIR      67  51  57 SE12G17   30.24F
WADENA         SUNNY     64  50  59 E9        30.26S
GLENWOOD       SUNNY     64  48  55 E8        30.25S
BENSON         SUNNY     70  45  40 SE6       30.22F
ORTONVILLE     MOSUNNY   72  48  43 CALM      30.21S
MADISON        CLOUDY    70  48  46 SE6       30.21S
WILLMAR        FAIR      70  46  43 E8        30.24S
$$
MNZ033>034-036-042>043-049>051-058-059-302300-
   Central Minnesota

CITY           SKY/WX    TMP DP  RH WIND       PRES   REMARKS
ST CLOUD       SUNNY     69  48  47 E8        30.24F
SAUK CENTRE    FAIR      66  51  57 E10       30.25F
PAYNESVILLE    SUNNY     68  46  44 E8        30.25S
AITKIN         SUNNY     70  39  32 E6        30.27F
PINE RIVER     SUNNY     66  54  63 E7        30.30F
BRAINERD       SUNNY     66  48  52 SE7       30.28F
STAPLES        SUNNY     66  50  55 E7        30.26F
LONG PRAIRIE   FAIR      64  50  59 NE8       30.26F
LITTLE FALLS   SUNNY     66  50  55 NE6       30.26F
LITCHFIELD     SUNNY     72  48  43 E12       30.24F
BUFFALO        SUNNY     70  48  46 NE9       30.25S
MAPLE LAKE     SUNNY     70  53  54 E9        30.25F
HUTCHINSON     MOSUNNY   70  49  46 E9        30.24S
$$
MNZ037-044-045-052-053-302300-
   East Central Minnesota

CITY           SKY/WX    TMP DP  RH WIND       PRES   REMARKS
PRINCETON      SUNNY     72  52  49 NE6       30.25F
MORA           SUNNY     68  50  52 E5        30.27F
CAMBRIDGE      SUNNY     72  54  53 NE6       30.23F
MOOSE LAKE     SUNNY     57  50  77 NE7       30.30S
HINCKLEY       FAIR      64  54  68 NE7       30.27F
CLOQUET        CLOUDY    55  50  82 E7        30.33S
MCGREGOR       SUNNY     66  48  52 E9        30.29F
$$
MNZ071>073-080-081-089-090-097-098-302300-
   Southwest Minnesota

CITY           SKY/WX    TMP DP  RH WIND       PRES   REMARKS
MONTEVIDEO     SUNNY     73  45  35 SE10G16   30.23S
GRANITE FALLS  SUNNY     73  44  35 E9        30.22F
CANBY          SUNNY     71  46  41 SE10      30.21F
MARSHALL       SUNNY     71  45  39 E12       30.21S
REDWOOD FALLS  SUNNY     72  43  35 E9        30.21F
OLIVIA         SUNNY     70  46  43 E8        30.21F
PIPESTONE      SUNNY     72  37  28 SE9       30.20F
WINDOM         SUNNY     72  46  40 E8        30.21F
WORTHINGTON    SUNNY     70  47  43 E10       30.21F
JACKSON        SUNNY     72  45  37 E6G16     30.21F
TRACY          SUNNY     71  47  41 E9        30.21F
$$
MNZ065>067-074>077-082>085-091>093-302300-
   South Central Minnesota

CITY           SKY/WX    TMP DP  RH WIND       PRES   REMARKS
MANKATO        SUNNY     70  53  54 NE8       30.21F
NEW ULM        SUNNY     70  48  46 NE7       30.21F
ST JAMES       SUNNY     70  52  52 NE5       30.21F
FAIRMONT       PTSUNNY   72  52  49 E9        30.20F
GLENCOE        SUNNY     69  52  55 NE10      30.22F
FARIBAULT      MOSUNNY   72  52  49 NE6       30.21F
OWATONNA       MOSUNNY   70  52  52 E7        30.20F
WASECA         CLOUDY    70  52  52 N9        30.21F
ALBERT LEA     MOSUNNY   72  52  49 NE8       30.19F
$$
MNZ078>079-086>088-094>096-302300-
   Southeast Minnesota

CITY           SKY/WX    TMP DP  RH WIND       PRES   REMARKS
ROCHESTER      CLOUDY    67  54  63 NE8       30.21S
RED WING       SUNNY     72  48  43 CALM      30.20S
STANTON        SUNNY     73  48  41 NE7       30.20S
DODGE CENTER   SUNNY     72  52  49 NE9       30.21S
WINONA         CLOUDY    70  55  60 SE3       30.20S
AUSTIN         CLOUDY    68  54  60 E9        30.20S
PRESTON        CLOUDY    64  53  68 NE6       30.21S
$$
ABBREVIATIONS USED IN REMARKS
   TC - TEMPERATURES IN CELSIUS
  WCI - WIND CHILL INDEX
   HX - HEAT INDEX
  VSB - VISIBILITY
$$



USA.gov is the U.S. government's official web portal to all federal, state and local government web resources and services.